カタログに戻る

SCOUT B DEB

LostUNKNOWN
NORAD 29176·DEBRIS·🇺🇸 United States

打ち上げ Aug 10, 1965 から Wallops Flight Facility

Loading…

次のパス (今後24時間)

TLE

古いSource: Space-Track

元期: Feb 29, 2016, 20:53 UTC

1 29176U 65063AA  16060.87073067  .00004150  00000-0  31484-1 0  9997
2 29176  69.1590 241.0729 0563849  87.4786 341.6444 12.02493314475457

AllMySatでSCOUT B DEBをリアルタイム追跡

Download on the App Store